Member area
Imprimable
Mons, 20/11/2021, BEL - Mons côté Bois & La Virée des Chin-Chins et Trail du Dragon
List of reports > Trail du Dragon - 22km - Result
Search: Page: [1]
313 Entries
 
Complains are not accepted anymore. Results are final.
Category
PosNrNameAgeNATTeamTimeTkmMoy.PlaceNameCity
1.143CUSSE Kevin36BELTTDA1:26:503:57 15.201SH2
2.368VAN WEVERBERG Tommy43BEL1:27:023:58 15.171VH1
3.26HAZETTE Henri37BELDTC1:27:343:59 15.072SH2
4.197LUYPAERT Dieter43BELTEAM DE FIETSER1:28:584:03 14.842VH1
5.89WATTIER Davy40BELTRAKKS / MADRES1:29:334:05 14.743VH1
6.390MORTIER Thomaas29BEL1:32:074:12 14.331SH1
7.265COLMANT MIDOL Michel46BEL1:32:324:13 14.274VH1
8.233MOREELS Guillaume38BELBIOTRAIL GUILI’1:33:014:14 14.193SH2
9.391MISSIAEN Jonas39BEL1:34:224:18 13.994SH2
10.361LABORGNE Michael36BEL1:34:284:18 13.975SH2
11.295HUBERT Charles38BELMADRES1:35:294:21 13.836SH2
12.297HENAUT Louis26BELCCRUNNINGTEAM1:35:534:22 13.772SH1
13.11BOECKMANS Damien38BEL1:36:054:23 13.747SH2
14.174LECOMTE Clément27BEL1:36:344:24 13.673SH1
15.38SUDIRO Jordan38BEL1:36:354:24 13.678SH2
16.94BALBO Livio30BELETENGHIEN1:36:584:25 13.619SH2
17.376BONNIER Vincent38BEL1:37:074:25 13.5910SH2
18.305PAULUS David46BELHYUNDAI CORDISC1:38:104:28 13.455VH1
19.356BIERNAUX Doriano23BEL1:38:124:28 13.444SH1
20.78DEVELLE Vivien41BELRST ATH1:38:174:29 13.436VH1
21.389HOCQUET Adrien26BEL1:38:224:29 13.425SH1
22.200HERMAN Jimmy40BELJÉRUSALEM FORCE1:38:504:30 13.367VH1
23.249LELEU Sylvain44BELLB TEAM1:39:054:31 13.328VH1
24.258DEVENYNS Stephane42BELRST ATH1:39:184:31 13.299VH1
25.125DEPAEPE Patrick51BELBIOTRAIL1:39:474:33 13.231VH2
26.263FRECOURT Xavier50BEL1:40:184:34 13.162VH2
27.306PICCAVET Niels34BELTRAILIZ1:41:144:37 13.0411SH2
28.350VIAET Lilles53BEL1:41:284:37 13.013VH2
29.50BEVERNAGIE Gwen35BEL1:41:374:38 12.9912SH2
30.396CARANILLE Romain29BEL1:41:534:38 12.966SH1
31.266TRAJIUS Gabriel54BELBCH VTT1:42:024:39 12.944VH2
32.144WATTIEZ Christophe44BELLES POTES Ô MAL1:42:034:39 12.9410VH1
33.286GRAS Pierre41BEL1:42:204:40 12.9011VH1
34.300FCAPELLE Coraline37BELCOCOACH1:42:224:40 12.901SD2
35.355HOVINE Antonin29BEL1:43:174:42 12.787SH1
36.362VANOVERSCHELDE Francois44BEL1:43:414:43 12.7312VH1
37.181DIERYCK Pascal53BEL1:43:504:44 12.715VH2
38.45VANPAEMEL Hugues32BEL1:43:554:44 12.7013SH2
39.30FLASSE Will43BELRUGBY CLUB FRAM1:43:554:44 12.7013VH1
40.206BERTE Stéphane44BELLES GENS D'ERE1:44:064:44 12.6814VH1
41.357LARDIER Florent35BEL1:44:194:45 12.6614SH2
42.352ZANIER Laurent46BEL1:44:454:46 12.6015VH1
43.372FORGE Kevin29BEL1:44:594:47 12.578SH1
44.62CARTON-DELCOURT Bruno33BELDTC TRAIL1:45:114:47 12.5515SH2
45.128MONFORT Michael42BELMADRES1:45:124:47 12.5516VH1
46.1DIEU Michael47BELTRAKKS1:45:204:48 12.5317VH1
47.247VANDERHOOST Alexis35BEL1:45:434:49 12.4916SH2
48.213DELERS Maximilien35BELPIKMOUTH1:45:484:49 12.4817SH2
49.242PLACE Jérémy36BELTOUCHÉ CREW1:46:224:51 12.4118SH2
50.228RONDELAERE Tom43BELCWT1:46:544:52 12.3518VH1
51.378FDECALUVE Kelly29BEL1:47:054:53 12.331SD
52.387MARBAIX Didier55BEL1:47:414:54 12.261VH3
53.169DUFOUR Dimitri40BELTEMPLEUVE1:47:464:54 12.2519VH1
54.229VANDAUL Florian28BEL1:47:504:55 12.249SH1
55.207FRANCQ Sébastien41BELSAINT-SYMPHORIE1:48:314:56 12.1620VH1
56.85HANSOL Ismaël29BELWE TRAIL1:48:444:57 12.1410SH1
57.199PECCENINI Stéphane46BELBDD1:49:114:58 12.0921VH1
58.246GUILLEMEAU Julien27BELCOCOACH1:49:154:58 12.0811SH1
59.210DE MUNTER Toon42BEL1:49:244:59 12.0722VH1
60.36FSAVE Sonia49BEL1:49:264:59 12.061VD1
61.373KRZYKOS Lucas22BEL1:49:314:59 12.0512SH1
62.351LECOMTE Christophe40BEL1:49:455:00 12.0323VH1
63.5DIEUDONNE Michel52BEL1:49:555:00 12.016VH2
64.354ESPOSITO Vincenzo47BEL1:50:095:01 11.9824VH1
65.131COLLIN Pierre51BELDREAM RUNNERS1:50:155:01 11.977VH2
66.238DEWEZ Bastien34BELJEBATSJÉRÉMYSOE1:50:175:01 11.9719SH2
67.261KADDOUR DJEBBAR Mehdy34BEL1:50:275:02 11.9520SH2
68.28GOUTIERE François45BELLES CHAROGNARDS1:50:295:02 11.9525VH1
69.4DUFRANE Gil53BELSG3A1:50:335:02 11.948VH2
70.158ROBAK Wojciech39BEL1:50:375:02 11.9321SH2
71.66HELLIN Max40BEL1:50:465:03 11.9226VH1
72.58HENROTTE Quentin40BEL1:50:475:03 11.9227VH1
73.32SALMIN Francois37BELLES CHARROGNARD1:50:555:03 11.9022SH2
74.137VAN EYCKE Gert53BELVOLHARDING BEVE1:51:115:04 11.879VH2
75.73MERCKX Patrick60BELVOLHARDING BEVE1:51:115:04 11.871VH4
76.76FIGEYS Arnout39BELVOLHARDING BEVE1:51:115:04 11.8723SH2
77.14VAN DRIESSCHE Damien45BELVELAINES1:51:185:04 11.8628VH1
78.180DUBREUCQ Aurélien38BELJOGGALUX1:52:085:06 11.7724SH2
79.60CARTON-DELCOURT Benoit35BELDTCOLLINES1:52:245:07 11.7425SH2
80.369BRIQUET Corentin29BEL1:52:455:08 11.7113SH1
81.384AL-NINA Hakim41BEL1:52:585:09 11.6929VH1
82.303BACHELART Damien40BELMOHA1:52:585:09 11.6830VH1
83.141LEBLON Marc42BELETC1:53:135:09 11.6631VH1
84.157VAN WIJNSBERGHE Thomas40BELRUN FLY1:54:135:12 11.5632VH1
85.196LOMBART Dimitri41BELBDD1:54:155:12 11.5633VH1
86.380COUPIN Patrick49BEL1:54:165:12 11.5534VH1
87.29DELWARTE Laurent45BELDREAM'S RUNNERS1:54:395:13 11.5135VH1
88.259DE VOS Denis41BEL1:54:415:13 11.5136VH1
89.223DELATTE Sylvain45BELBDD1:54:415:13 11.5137VH1
90.230DROSSART Jonathan34BEL1:54:415:13 11.5126SH2
91.254UYTTERSPROT Dieter33BEL1:55:015:14 11.4827SH2
92.47VANHOOF Fabian50BELF.E.R.1:55:055:14 11.4710VH2
93.149DEBO Nick56BELTRAILIZ1:55:125:15 11.462VH3
94.148LAMBERT Francois38BELTER-X-THREE1:55:185:15 11.4528SH2
95.12PICKAERT Patrick44BEL1:55:215:15 11.4438VH1
96.81POTTIEZ Philippe57BELVERTIGO1:55:405:16 11.413VH3
97.308PILETTE Benoit47BEL1:55:455:16 11.4039VH1
98.204FSPILLIAERT Anne47BELVERTIGO1:55:495:16 11.402VD1
99.226PETIT Allain57BELTRAILIZ1:55:555:17 11.394VH3
100.44MANET Pierre37BEL1:55:565:17 11.3929SH2
101.401DEREUME Pascal59BEL1:55:565:17 11.395VH3
101.126SERON Alexandre44BELTCDM1:55:565:17 11.3940VH1
103.386STILITE Yoann27BEL1:55:565:17 11.3914SH1
104.23VAN GLABEKE Youri42BELKAIN BRUYERE1:55:575:17 11.3841VH1
105.88BROUILLARD François47BELMADRES1:56:055:17 11.3742VH1
106.209LIEGEOIS Vincent48BELSG3A1:56:055:17 11.3743VH1
107.3DE BLOCK Thomas33BEL1:56:205:18 11.3530SH2
108.52DELHALLE Xavier40BELANDRÈSTEAM1:56:265:18 11.3444VH1
109.18LENOIR Olivier50BELMONS RUNNING TE1:56:365:18 11.3211VH2
110.191BERTHELIN Pierre24BEL1:56:415:19 11.3115SH1
111.309FASSEAUX Antoine32BEL1:56:575:19 11.2931SH2
112.383VERWAERDE Olivier46BEL1:56:585:19 11.2945VH1
113.90PRIELS Amaury27BEL1:56:595:20 11.2816SH1
114.393BRION Stephane47BEL1:58:205:23 11.1646VH1
115.358FBALDARELLI Maria-Teresa55BEL1:58:325:24 11.141VD3
116.392HUARD SIMO Simon32BEL1:58:415:24 11.1232SH2
117.8GOETHALS Maxence41BELMADRES1:58:555:25 11.1047VH1
118.366MAHIEU Laurent46BEL1:59:045:25 11.0948VH1
119.121MARCHAND Yves56BELVERTIGO1:59:255:26 11.056VH3
120.203SOETE Jeremy37BELSOETEAMANDCO1:59:325:26 11.0433SH2
121.227D'ANGELO Gabriele50BELFER2:00:025:28 11.0012VH2
122.235FHEULLE Naomi25BELCC RUNNING TEAM2:00:175:29 10.972SD
123.37TRICOT Geoffrey32BELLES AMIS JOGGEU2:00:265:29 10.9634SH2
124.287FGHISLAIN Bénédicte40BELLB TEAM2:00:275:29 10.963VD1
125.31WAUQUIER Jean-Marie47BELRUGBY CLUB FRAM2:00:345:29 10.9549VH1
126.385FROUSSEAU Clara23BEL2:00:575:30 10.913SD
127.79GERBOUX Olivier47BEL2:01:275:32 10.8750VH1
128.243RENARD Guillaume27BELSPIRIDON BORINA2:01:395:32 10.8517SH1
129.255JOLY Lucas49BELLA FORESTIERE2:01:445:32 10.8451VH1
130.395SORRIAUX Bryan29BEL2:01:475:33 10.8418SH1
131.72VAN DRIESSCHE Valentin27BELWETRAIL ACADÉMI2:01:535:33 10.8319SH1
132.280SPERLICH Charles41BELSOETEAM2:02:125:34 10.8052VH1
133.111VAN RANST David46BEL2:02:205:34 10.7953VH1
134.87DE SADELEER Winoc56BELVOLHARDING BEVE2:02:515:36 10.757VH3
135.27SAWERYNIUK Chris49BEL2:03:315:37 10.6954VH1
136.260FTHOMAS Geneviève48BELVERTIGO2:03:395:38 10.684VD1
137.156VERMEERSCH Olivier42BELSPORT ÉVASION2:03:445:38 10.6755VH1
138.42RODIA Frédéric48BELMADRES2:03:485:38 10.6656VH1
139.222SPERLICH Guillaume43BELACBB2:04:015:39 10.6557VH1
140.65SIMON Fabrice51BELSPIRIDON BORINA2:04:075:39 10.6413VH2
141.9MATTHYS Pascal48BELAS VELAINES2:04:385:40 10.5958VH1
142.56VAN HASSELT Dominique52BEL2:04:485:41 10.5814VH2
143.33MARTIN Guy Marie61BEL2:04:565:41 10.572VH4
144.248MOREELS Martin26BELBIOTRAIL2:05:075:42 10.5520SH1
145.234FTHIEBAUT Véronique57BELVERTIGO2:05:275:43 10.522VD3
146.262MOLLE Jean-Francis41BEL2:05:355:43 10.5159VH1
147.202ANTOCHEL Volodymyr41BELMADRES2:05:555:44 10.4860VH1
148.74HOSTE Peter59BELVOLHARDING BEVE2:06:195:45 10.458VH3
149.39LAYEUX Olivier44BELRUGBY FRAMERIES2:06:295:45 10.4461VH1
150.69NUYTTEN Thibaut44BELAPÉRO RUNNING2:06:345:46 10.4362VH1
151.268FFOURNEAU Lionel36BEL2:07:495:49 10.332SD2
152.40CHOQUET Thomas47BELN/A2:08:055:50 10.3163VH1
153.41FTHUIN Virginie44BELN/A2:08:055:50 10.315VD1
154.59VERPOORTE Alain60BEL2:08:365:51 10.263VH4
155.365DUQUESNE Emmanuel43BEL2:08:575:52 10.2464VH1
156.124DI MARCO Ilario17BEL2:08:575:52 10.241ESH
157.236GUERY Gregory45BEL2:08:575:52 10.2465VH1
158.154PERVEUX Olivier43BELLA FORESTIÈRE2:08:575:52 10.2466VH1
159.168PIERMAN Thomas32BELLA FORESTIÈRE2:08:575:52 10.2435SH2
160.290FDUVEILLIER Amélie47BEL2:09:005:52 10.236VD1
161.364MALBRECQ Bernard64BEL2:09:015:52 10.234VH4
162.172BRUYERE Gauthier42BEL2:09:025:52 10.2367VH1
163.146MICHAUX Dimitri49BEL2:09:055:53 10.2368VH1
164.101BOTTELDOORN Stephane58BEL2:09:155:53 10.219VH3
165.102FBAUSIER Nathalie52BEL2:09:155:53 10.211VD2
166.239FHENNEUSE Melanie47BEL2:09:285:54 10.207VD1
167.162DELETTRE Jean-Cyril52BEL2:09:505:55 10.1715VH2
168.299GAUPIN Julien49BELTEAM HALLEBARDI2:09:525:55 10.1769VH1
169.241VERHOEVEN Bruno33BEL2:09:585:55 10.1636SH2
170.400VAN DER MEULEN Bernard63BEL2:10:005:55 10.155VH4
171.6FLOTTEN Carole43BELRST ATH2:10:045:55 10.158VD1
172.205FGHELEYNS Odile40BELLES GENS D’ERE2:10:115:56 10.149VD1
173.68FVAN DEYNZE Lauranne45BELAPÉRO RUNNING2:10:185:56 10.1310VD1
174.71FBOURGOIS Julie42BELAPÉRO RUNNING2:10:185:56 10.1311VD1
175.367MANNIVO Massimo42BEL2:10:275:56 10.1270VH1
176.67WACHEUL Dimitri47BELLES ÉCLATES PER2:11:025:58 10.0771VH1
177.91LEMOINE Fabian40BELRST ATH2:11:155:58 10.0672VH1
178.291SPANNEUT Sébastien50BELMONT ET COLLINE2:11:175:59 10.0616VH2
179.267TORREKENS Florian15BEL2:11:185:59 10.052ESH
180.92CLAEYS Samuel49BELRST ATH2:11:195:59 10.0573VH1
181.292FBRAL Séverine44BELMONT ET COLLINE2:11:205:59 10.0512VD1
182.107FBERNARD Katty46BELRUN AND SMASH T2:11:205:59 10.0513VD1
183.216FDECROCK Emma22BELTRAILIZ2:11:255:59 10.044SD
184.15AUDOOR Alain63BELVELAINES2:11:285:59 10.046VH4
185.153QUINTIN Pierre59BELAS VELAINES2:11:365:59 10.0310VH3
186.116SCHRAYEN Steve37BEL2:12:016:01 10.0037SH2
187.105SCHMITZ Mathieu40BELADDM2:12:466:03 9.9474VH1
188.232OZDEMIR Eren29BEL2:12:496:03 9.9421SH1
189.240DESSINGES Reynald51BEL2:13:146:04 9.9117VH2
190.252PIERON Vincent51BELLES ÉCLATÉS PÉR2:13:206:04 9.9018VH2
191.231DEMAREZ Corentin29BEL2:13:316:05 9.8922SH1
192.285FDEMEULENAERE Sophie55BELLES GUIBOLLES F2:13:466:05 9.873VD3
193.224GONSETTE Charles-Etienne37BEL2:13:516:06 9.8638SH2
194.293FDEKOSTER Pauline36BELCOCOACH2:13:536:06 9.863SD2
195.296DECLERCQ Yannick47BELCOCOACH2:13:536:06 9.8675VH1
196.250NEMEGHAIRE Laurent50BELLES ÉCLATÉS PÉR2:13:556:06 9.8619VH2
197.225THORNTON Geoffrey42BELTEAM MAHIA2:13:566:06 9.8676VH1
198.132FIGUE Sebastien46BEL-2:14:046:06 9.8577VH1
199.176VERDY Jacques63BELKAIN BRUYÈRE2:14:156:07 9.837VH4
200.185FMAHIA Bérangère45BELLES TROTTINEURS2:14:216:07 9.8314VD1
201.10WILLOCQ Philippe57BELHAC2:14:286:07 9.8211VH3
202.279VENDOIS David39BELSANS2:14:596:09 9.7839SH2
203.212LORIMIER Hérold48BELTEAM VERTIGO2:15:016:09 9.7878VH1
204.155FPREVOST Marie-Cécile41BELRUNNING CLUB TE2:15:196:10 9.7615VD1
205.304BALAND Johan47BELFARMERS CLUB2:15:196:10 9.7579VH1
206.374FDEVROEY Vanessa49BEL2:15:206:10 9.7516VD1
207.119ASSIF Muss48BEL2:15:376:10 9.7380VH1
208.214DEMOUSTIER Cédric46BEL2:15:396:10 9.7381VH1
209.182FJANUTH Frances45BELL'ARBRE VERT2:15:456:11 9.7217VD1
210.183BELKACEM Racheid51BELL'ARBRE VERT2:15:456:11 9.7220VH2
211.184FHARNET Julie38BELL'ARBRE VERT2:15:456:11 9.724SD2
212.284DRAGUET Amaury30BEL2:16:116:12 9.6940SH2
213.147POIVRE François26BEL2:16:166:12 9.6923SH1
214.161BERTON Jean-Marc60BELSANS2:16:216:12 9.688VH4
215.251FMARKI Isabelle45BELLES ÉCLATÉS PÉR2:16:266:13 9.6818VD1
216.221FLECLERCQ Anne50BELERE FORCE ONE2:16:416:13 9.662VD2
217.359LEPOUTRE Vincent49BEL2:16:416:13 9.6682VH1
218.170URBAIN Arnaud37BEL/2:17:116:15 9.6241SH2
219.379HOLOFFE Didier55BEL2:17:146:15 9.6212VH3
220.294FKIN Laurence52BELJAMES2:18:226:18 9.543VD2
221.360MINNE Etienne54BEL2:18:356:18 9.5221VH2
222.120PUSCEDDU Mauro46BELTEAM VERTIGO2:18:356:18 9.5283VH1
223.136RYCKEBOSCH Ludwig58BELB BÊTES DE COUR2:18:376:19 9.5213VH3
224.24FCOTE Myriam33BEL2:19:026:20 9.495SD2
225.186FRAMU Annick58BELKAIN BRUYÈRE2:19:106:20 9.494VD3
226.187DESLEE Eric59BELKAIN BRUYÈRE2:19:106:20 9.4914VH3
227.211ROLAND Maxime36BEL2:19:206:20 9.4742SH2
228.282FLUYTEN Fabienne56BELJAMES2:19:256:21 9.475VD3
229.2VAN DE VYVER Laurent43BELRST2:19:276:21 9.4784VH1
230.160FROLAND Eglantine43BEL2:19:406:21 9.4519VD1
231.288SEMET Jean-Paul55BEL2:19:516:22 9.4415VH3
232.34GILLARD Stéphane44BEL2:21:066:25 9.3685VH1
233.112PEREZ BLANCO Sébastian34BEL2:23:006:30 9.2343SH2
234.382MOLINARO Kevin33BEL2:23:116:31 9.2244SH2
235.86FWEYTSMAN Celine39BELTEMPLEUVE2:23:116:31 9.226SD2
236.353LOUVAERT Michael41BEL2:23:116:31 9.2286VH1
237.245BLANCKAERT Yves60BELEAD DOUCHY LES 2:24:016:33 9.179VH4
238.21FTESTONE Marianne49BELTEAM VERTIGO2:24:096:34 9.1620VD1
239.370FDELVAUX Sylvie54BEL2:24:096:34 9.164VD2
240.133JUSTE David48BELJUPITEAM2:24:316:35 9.1387VH1
241.371FWELSCHEN Anne57BEL2:24:496:35 9.126VD3
242.150FMISTIAEN Katrien51BELTRAILIZ2:25:126:36 9.095VD2
243.257SGALBIERO Orazio64BEL2:25:226:37 9.0810VH4
244.302FLETERME Vanessa42BELETC2:25:256:37 9.0821VD1
245.152BATAILLE DE LONGPREY Alexandre33BEL2:25:266:37 9.0845SH2
246.179DESMET Yves63BELJCSK2:25:426:38 9.0611VH4
247.377GHERDILLE J Marc55BEL2:25:546:38 9.0516VH3
248.138BILLOT Pierre53BELZONARDS2:26:106:39 9.0322VH2
249.195DONCK Geoffroy33BELRCBT2:26:136:39 9.0346SH2
250.82LEMERCIER Valentin37BEL2:26:186:39 9.0247SH2
251.175NEF Ludovic44BEL2:26:196:40 9.0288VH1
252.57TIJTGAT Ewout46BEL2:26:276:40 9.0189VH1
253.98ESTIEVENART Eric47BELMADRES2:26:296:40 9.0190VH1
254.166BOQUET Frédéric49BELWE TRAIL ACADEM2:26:316:40 9.0191VH1
255.165FBECHET Cécile49BELWETRAIL ACADEMY2:26:316:40 9.0122VD1
256.283MOURY Gwenn33BELFORESTIERE2:26:396:40 9.0048SH2
257.193WAROQUET Mathieu37BELSANS2:26:396:40 9.0049SH2
258.289FCOTTEL Ludivine43BEL2:26:476:41 8.9923VD1
259.237ZULIANI Eddy50BEL2:26:476:41 8.9923VH2
260.264FTHERY Virginie47BELTEAM LAGAFE2:26:476:41 8.9924VD1
261.93FMOYAERTS Nathalie31BELETENGHIEN2:27:506:44 8.937SD2
262.84BISET Jonathan31BEL2:28:056:44 8.9150SH2
263.108PIERQUIN Pascal47BEL2:28:276:45 8.8992VH1
264.244GOBERT Bruno32BEL2:28:366:46 8.8851SH2
265.95FDERIDDER Anne-Lise33BELE.T.ENGHIEN2:28:456:46 8.878SD2
266.189FFERRARI Marie21BEL2:29:016:47 8.865SD
267.190STOUDER Wesley21BEL2:29:016:47 8.8624SH1
268.123DI MARCO Claudio46BEL2:29:346:48 8.8393VH1
269.19FHONORE Melanie41BELVERTIGO2:29:436:49 8.8225VD1
270.100FGALLEZ Laurence48BELVERTIGO2:29:446:49 8.8226VD1
271.388STILITE Frank55BEL2:29:546:49 8.8117VH3
272.134FLACZNY Nancy36BELHAM2:29:566:49 8.809SD2
273.164GILLIARD Gerard69BELAC CAMBRAI2:30:046:50 8.801VH5
274.114SAPORITO Sylvano42BELFER2:30:146:50 8.7994VH1
275.46FGALANT Anne50BELTORTUES MESLINO2:30:246:51 8.786VD2
276.55CNUDDE Olivier37BELCANICROSS CENTR2:30:336:51 8.7752SH2
277.177HOYOIS Bernard52BELGSK FUNCLUB2:30:336:51 8.7724VH2
278.194FLELANGUE Amélie27BELCANICROSS CENTR2:30:336:51 8.776SD
279.127MICHEL Benoit69BEL2:30:586:52 8.742VH5
280.64MESTDAGH Michel68BEL2:30:596:52 8.743VH5
281.173HARDAT Mickael40BELLES TROTTINEURS2:31:406:54 8.7095VH1
282.118LELEUX Christophe39BELRUNAISSANCE.BE2:31:546:55 8.6953SH2
283.48FDE MEERSMAN Emmanuelle41BELCYCLO CLUB SAIN2:32:066:55 8.6827VD1
284.394FBOURGUET Helene39BEL2:32:526:57 8.6410SD2
285.253DEWANDEL Laurent57BEL2:32:526:57 8.6418VH3
286.381FCUBI Corinne53BEL2:32:526:57 8.647VD2
287.16FCORNEZ Lutgarde51BELAS VELAINES2:33:166:58 8.618VD2
288.17FPEUTTE Sylvie53BELAMIS SPORTIFS V2:33:176:59 8.619VD2
289.70FCARETTE Valérie-Anne46BELAS VELAINES2:33:176:59 8.6128VD1
290.97FBACHY Laurence48BELMADRES2:33:226:59 8.6129VD1
291.113FILISETTI Jean-Marie50BELMADRES2:33:226:59 8.6125VH2
292.35FLENAERTS Julie44BEL2:33:336:59 8.6030VD1
293.215DUYCKAERTS Benoit46BELTHEODO TEMPO2:33:346:59 8.6096VH1
294.106FGRYSPEERT Dominique41BELTRAILIZ2:33:427:00 8.5931VD1
295.208FLEFEVRE Cécile51BELVERTIGO2:33:537:00 8.5810VD2
296.301FHENNAUT Frederique51BELVERTIGO2:33:537:00 8.5811VD2
297.103MICHEL Maxime46BEL2:34:327:02 8.5497VH1
298.298GILLET Romuald35BEL2:35:287:04 8.4954SH2CASTEAU
299.363FDEHOUST Marianne60BEL2:36:217:07 8.441VD4
300.375VANO Remy31BEL2:37:367:10 8.3855SH2
301.80URBAIN Lionel39BELERCIES RUN2:37:367:10 8.3856SH2
302.117FHALLOT Floriane30BELERCIES RUN2:37:367:10 8.3811SD2
303.104BURION Gwennael34BELERCIERUN2:37:377:10 8.3857SH2
304.51CORDIER Quentin39BELERCIES RUN2:37:377:10 8.3858SH2
305.96FMAESFRANCKX Harmony29BELERCIES RUN2:37:377:10 8.377SD
306.122FANDRE Nathalie54BELVERTIGO2:39:177:15 8.2912VD2
307.452CASSART Luc58BEL2:40:447:19 8.2119VH3
308.220FDECAIGNY Francoise52BEL2:40:457:19 8.2113VD2
309.130FHAMDOUN Laura37BELLES BBETES DE C2:44:507:30 8.0112SD2
310.53RENARD Pascal54BELJCL2:44:507:30 8.0126VH2
311.129FBENNARI Mohamed46BEL2:55:538:00 7.5132VD1
312.83HEYSECOM David38BEL3:13:498:49 6.8159SH2
313.25JORIO Ludovic38BELMOVE COACHING3:14:018:50 6.8060SH2
DNF: did not finish; DSQ: disqualified; Speed in km/h
Page: [1]